Showing default

OPS 9347 (IDSCS 25), 3290

Orbit data source: Space-Track

OPS 9347 (IDSCS 25), 3290 is a payload satellite owned by SAMSO (US) in GEO that was launched on Thu, 13 Jun 1968 UTC via a TITAN IIIC launch vehicle from the Air Force Eastern Test Range (AFETR). Payload-class satellites include a variety of spacecraft equipped with specific instruments for various scientific and technological missions. These include communications satellites like Starlink; space stations such as the ISS; scientific satellites like the Hubble; Earth observation satellites from companies like Planet Labs, Umbra, and HawkEye 360; GPS; miniature CubeSats for education and research; and military/defense satellites.

Not visible in the next 10 days
Identifier
3290, 1968-050G
Orbit
GEO
Country
Flag of USUS
Related business
Manufacturer
Philco-Ford
Mission
Non-operational Defense Communications
Bus & Motor
IDCSP, Unknown motor
Mass
45 kg wet, 45 kg dry
Launch date (UTC)
1968-06-13 (57 years ago)
Launch vehicle
TITAN IIIC
Launch site
Air Force Eastern Test Range (AFETR)
Object type
Payload
Rocket body
Debris
Shape & HBR
Poly, 0.5 m
Radar Cross Section
0.926 m², Medium (>0.1 m² and < 1m²)

Expand to show TLE details & history
Last TLE update: 1 day ago

TLE from 1 day ago
0 OPS 9347 (IDSCS 25)
1 03290U 68050G   25257.09655863 -.00000130  00000-0  00000-0 0  9991
2 03290   6.3870  56.6096 0061534 129.4042 256.4375  1.07035993 44189
Epoch: 2025-09-14T02:19Z
TLE epoch observation values (Epoch: 2025-09-14T02:19:02.665Z)
Latitude
2.69631°
Longitude
53.53394°
Altitude
34,049.628 km
Speed
3.138 km/s
True Right ascension
05h 26m 27s
True Declination
2° 41' 36"
Sunlit
Object was in daylight at epoch
Visualization orbit readout
Latitude
Unknown
Longitude
Unknown
Altitude
Unknown
Speed
Unknown
Apparent Right ascension
Unknown
Apparent Declination
Unknown
Sunlit
N/A
Visualization observer readout
Local Sidereal Time
02:05:47
Azimuth
Unknown
Elevation
Unknown
Doppler factor
Unknown
Orbital elements
Apogee altitude
34,240.43 km
Perigee altitude
33,743.603 km
Semi-major axis
40,370.153 km
Eccentricity
0.00615
Inclination
6.387°
RAAN
56.6096°
Arg. of periapsis
129.4042°
True anomaly
255.75329°
Mean anomaly
256.4375°
Eccentric anomaly
256.09527°
Mean motion
0.26758 °/min
Orbital period
1,345.4 mins
BSTAR
0
Loading maneuver chart data...
Computing Atmospheric mass density...
Loading historical data...
Loading historical data...
Loading historical data...
Loading historical data...
Loading historical data...
Loading historical data...
Loading historical data...

Documentation

Showing up to 5 results
|